GW6708 Weather Reports


Display with metric or nautical units.
time (UTC)temp
F
wind
direction
speed
MPH
gust
MPH
rain 1hr
in
rain 24hr
in
rain mn
in
humidity
%
barometer
mb
20260510094125 67 203 0.0 0.0 0.00 0.03 0.00 94 1011.4
20260510093125 67 225 0.0 0.0 0.00 0.03 0.00 93 1011.3
20260510092125 67 203 0.0 0.0 0.00 0.03 0.00 92 1011.2
20260510091123 68 203 0.0 0.0 0.00 0.03 0.00 92 1011.3
20260510090123 68 203 0.0 0.0 0.00 0.03 0.00 91 1011.3
20260510085123 68 180 0.0 0.0 0.00 0.03 0.00 91 1011.3
20260510084123 68 180 0.0 0.0 0.00 0.03 0.00 91 1011.3
20260510083123 68 203 0.0 0.0 0.00 0.03 0.00 90 1011.2
20260510082125 69 203 0.0 0.0 0.00 0.03 0.00 89 1011.2
20260510081126 69 203 0.0 0.0 0.00 0.03 0.00 88 1011.2
20260510080147 69 203 0.0 0.0 0.00 0.03 0.00 87 1011.3
20260510075123 70 203 0.0 0.0 0.00 0.03 0.00 86 1011.2
20260510074123 70 180 0.0 0.0 0.00 0.03 0.00 85 1011.2
20260510073123 71 203 0.0 0.0 0.00 0.03 0.00 84 1011.2
20260510072123 71 180 0.0 0.0 0.00 0.03 0.00 84 1011.2
20260510071123 72 203 0.0 0.0 0.00 0.03 0.00 83 1011.3
20260510070126 72 203 0.0 0.0 0.00 0.03 0.00 83 1011.3
20260510065125 72 180 0.0 0.0 0.00 0.03 0.00 82 1011.1
20260510064126 73 113 0.0 0.0 0.00 0.03 0.00 81 1011.2
20260510063123 73 203 0.0 0.0 0.00 0.03 0.00 79 1011.3
20260510062144 74 203 0.0 0.0 0.00 0.03 0.00 78 1011.3
20260510061123 75 152 1.0 2.0 0.00 0.03 0.00 77 1011.2
20260510060123 75 135 1.0 2.0 0.00 0.03 0.00 76 1011.2
20260510055123 75 158 1.0 3.0 0.00 0.03 0.00 76 1011.3
20260510054126 75 102 1.0 3.0 0.00 0.03 0.00 76 1011.2
20260510053126 75 179 0.0 2.0 0.00 0.03 0.00 77 1011.2
20260510052126 75 236 0.0 1.0 0.00 0.03 0.00 77 1011.1
20260510051123 76 203 0.0 0.0 0.00 0.03 0.00 75 1011.1
20260510050123 76 132 0.0 3.0 0.00 0.03 0.00 74 1011.1
20260510045123 77 192 1.0 3.0 0.00 0.03 0.03 73 1011.0
20260510044123 77 184 1.0 3.0 0.00 0.03 0.03 73 1011.1
20260510043123 77 197 1.0 3.0 0.00 0.03 0.03 73 1011.1
20260510042146 77 180 1.0 3.0 0.00 0.03 0.03 73 1011.0
20260510041125 75 200 1.0 3.0 0.00 0.03 0.03 79 1010.9
20260510040125 75 203 0.0 0.0 0.00 0.03 0.03 77 1011.0
20260510035123 76 203 0.0 0.0 0.00 0.03 0.03 75 1010.9
20260510034123 77 203 0.0 0.0 0.00 0.03 0.03 73 1010.9
20260510033123 77 180 0.0 0.0 0.00 0.03 0.03 72 1010.9
20260510032123 78 203 0.0 0.0 0.00 0.03 0.03 70 1010.8
20260510031123 79 203 0.0 0.0 0.00 0.03 0.03 68 1010.8
20260510030123 80 169 0.0 1.0 0.00 0.03 0.03 66 1010.9
20260510025125 80 191 0.0 1.0 0.00 0.03 0.03 66 1010.8
20260510024125 81 148 1.0 3.0 0.00 0.03 0.03 63 1010.8
20260510023123 81 113 1.0 3.0 0.00 0.03 0.03 62 1010.7
20260510022144 82 125 1.0 3.0 0.00 0.03 0.03 61 1010.7
20260510021123 82 101 1.0 2.0 0.00 0.03 0.03 59 1010.5
20260510020144 82 196 0.0 2.0 0.00 0.03 0.03 57 1010.5
20260510015123 83 104 0.0 3.0 0.00 0.03 0.03 56 1010.4
20260510014144 84 141 1.0 5.0 0.00 0.03 0.03 54 1010.3
20260510013126 84 158 2.0 4.0 0.00 0.03 0.03 52 1010.2
20260510012126 85 112 2.0 5.0 0.00 0.03 0.03 51 1010.1
20260510011123 86 125 3.0 6.0 0.00 0.03 0.03 51 1009.9
20260510010123 86 183 2.0 5.0 0.00 0.03 0.03 52 1010.0
20260510005144 87 186 2.0 3.0 0.00 0.03 0.03 52 1010.0
20260510004123 88 138 2.0 4.0 0.00 0.03 0.03 51 1009.8
20260510003123 89 158 2.0 3.0 0.00 0.03 0.03 49 1009.8
20260510002123 90 186 1.0 3.0 0.00 0.03 0.03 48 1009.7
20260510001126 90 180 2.0 4.0 0.00 0.03 0.03 47 1009.6
20260510000125 93 132 1.0 3.0 0.00 0.03 0.03 45 1009.6
20260509235144 94 188 2.0 3.0 0.00 0.03 0.03 44 1009.4
20260509234123 96 201 1.0 3.0 0.00 0.03 0.03 42 1009.5
20260509233123 93 174 2.0 4.0 0.00 0.03 0.03 44 1009.7
20260509232123 94 188 2.0 6.0 0.00 0.03 0.03 43 1009.7
20260509231123 94 192 1.0 3.0 0.00 0.03 0.03 44 1009.7
20260509230123 95 147 2.0 5.0 0.00 0.03 0.03 43 1009.7
20260509225146 97 166 2.0 4.0 0.00 0.03 0.03 42 1009.6
20260509224124 97 213 2.0 4.0 0.00 0.03 0.03 42 1009.6
20260509223125 94 177 3.0 5.0 0.00 0.03 0.03 44 1009.6
20260509222123 94 192 3.0 5.0 0.00 0.03 0.03 44 1009.6
20260509221123 96 170 2.0 4.0 0.00 0.03 0.03 44 1009.7
20260509220123 95 188 2.0 5.0 0.00 0.03 0.03 43 1009.7
20260509215123 96 248 2.0 4.0 0.00 0.03 0.03 45 1009.8
20260509214123 94 229 2.0 4.0 0.00 0.03 0.03 45 1009.7
20260509213125 97 231 2.0 6.0 0.00 0.03 0.03 45 1009.8
20260509212145 96 239 2.0 4.0 0.00 0.03 0.03 44 1009.9
20260509211124 97 232 2.0 3.0 0.00 0.03 0.03 44 1010.0
20260509210123 97 230 2.0 4.0 0.00 0.03 0.03 46 1010.0
20260509205123 96 219 2.0 4.0 0.00 0.03 0.03 47 1010.1
20260509204144 95 228 2.0 6.0 0.00 0.03 0.03 46 1010.2
20260509203144 95 182 2.0 4.0 0.00 0.03 0.03 47 1010.3
20260509202144 94 224 2.0 4.0 0.00 0.03 0.03 48 1010.4
20260509201146 95 238 2.0 3.0 0.00 0.03 0.03 47 1010.5
20260509200124 95 211 2.0 5.0 0.00 0.03 0.03 47 1010.5
20260509195144 95 225 2.0 4.0 0.00 0.03 0.03 46 1010.7
20260509194123 93 258 2.0 5.0 0.00 0.03 0.03 50 1010.8
20260509193123 93 248 3.0 5.0 0.00 0.03 0.03 47 1010.9
20260509192123 93 229 2.0 4.0 0.00 0.03 0.03 51 1010.8
20260509191123 90 261 2.0 4.0 0.00 0.03 0.03 54 1011.0
20260509190123 92 217 2.0 5.0 0.00 0.03 0.03 51 1011.0
20260509185123 92 198 2.0 3.0 0.00 0.03 0.03 53 1011.0
20260509184123 92 218 2.0 4.0 0.00 0.03 0.03 53 1011.1
20260509183144 93 203 2.0 6.0 0.00 0.03 0.03 52 1011.2
20260509182123 92 207 3.0 5.0 0.00 0.03 0.03 55 1011.2
20260509181123 93 210 2.0 3.0 0.00 0.03 0.03 55 1011.3
20260509180123 90 246 3.0 5.0 0.00 0.03 0.03 58 1011.3
20260509175144 91 225 2.0 2.0 0.00 0.03 0.03 56 1011.3
20260509173122 89 222 2.0 4.0 0.00 0.03 0.03 57 1011.4
20260509172125 91 235 2.0 4.0 0.00 0.03 0.03 57 1011.4
20260509171124 89 219 2.0 6.0 0.00 0.03 0.03 62 1011.4
20260509170122 87 222 2.0 5.0 0.00 0.03 0.03 66 1011.4
20260509165122 89 161 2.0 4.0 0.00 0.03 0.03 63 1011.4
20260509164122 87 182 2.0 3.0 0.00 0.03 0.03 69 1011.5
20260509163122 86 233 2.0 4.0 0.00 0.03 0.03 73 1011.5
20260509162122 85 239 2.0 3.0 0.00 0.03 0.03 75 1011.3
20260509161146 85 210 2.0 4.0 0.00 0.03 0.03 74 1011.3
20260509160123 83 220 1.0 3.0 0.00 0.03 0.03 75 1011.3
20260509155123 84 200 1.0 4.0 0.00 0.03 0.03 77 1011.5
20260509154122 84 209 1.0 3.0 0.03 0.03 0.03 82 1011.5
20260509153122 82 202 0.0 1.0 0.03 0.03 0.03 89 1011.8
20260509152143 76 180 0.0 1.0 0.03 0.03 0.03 94 1011.8
20260509151122 76 203 0.0 0.0 0.03 0.03 0.03 95 1011.7
20260509150122 75 90 0.0 0.0 0.03 0.03 0.03 96 1011.7
20260509145122 75 202 0.0 1.0 0.03 0.03 0.03 95 1011.8
20260509144126 75 200 0.0 2.0 0.00 0.00 0.00 95 1011.8
20260509143126 75 196 0.0 2.0 0.00 0.00 0.00 95 1011.7
20260509142122 74 174 0.0 2.0 0.00 0.00 0.00 95 1011.6
20260509141122 74 117 1.0 2.0 0.00 0.00 0.00 94 1011.6
20260509140122 74 170 1.0 2.0 0.00 0.00 0.00 94 1011.6
20260509135122 75 158 0.0 1.0 0.00 0.00 0.00 94 1011.1
20260509134143 74 353 0.0 3.0 0.00 0.00 0.00 94 1011.0
20260509133143 75 110 0.0 3.0 0.00 0.00 0.00 94 1011.1
20260509132125 75 96 1.0 3.0 0.00 0.00 0.00 94 1011.1
20260509131125 75 195 1.0 3.0 0.00 0.00 0.00 95 1011.1
20260509130122 74 163 1.0 2.0 0.00 0.00 0.00 95 1011.1
20260509125122 74 158 0.0 2.0 0.00 0.00 0.00 97 1011.4
20260509124122 73 174 0.0 2.0 0.00 0.00 0.00 97 1011.2
20260509123143 73 187 0.0 2.0 0.00 0.00 0.00 98 1011.3
20260509122143 73 211 0.0 3.0 0.00 0.00 0.00 98 1011.4
20260509121122 73 170 0.0 3.0 0.00 0.00 0.00 98 1011.4
20260509120122 73 138 1.0 2.0 0.00 0.00 0.00 98 1011.4
20260509115147 73 257 1.0 3.0 0.00 0.00 0.00 98 1011.3
20260509114122 73 229 1.0 3.0 0.00 0.00 0.00 98 1011.1
20260509113122 73 284 1.0 3.0 0.00 0.00 0.00 98 1010.8
20260509112122 73 113 0.0 2.0 0.00 0.00 0.00 98 1010.7
20260509111122 73 90 0.0 2.0 0.00 0.00 0.00 98 1010.8
20260509110143 73 203 0.0 0.0 0.00 0.00 0.00 98 1010.8
20260509105126 73 125 0.0 2.0 0.00 0.00 0.00 98 1010.8
20260509104143 73 163 1.0 2.0 0.00 0.00 0.00 97 1010.8
20260509103126 73 240 0.0 2.0 0.00 0.00 0.00 97 1010.9
20260509102122 73 56 1.0 2.0 0.00 0.00 0.00 97 1010.9
20260509101122 73 81 1.0 2.0 0.00 0.00 0.00 97 1010.9
20260509100122 73 72 0.0 2.0 0.00 0.00 0.00 97 1010.9
20260509095143 73 130 1.0 3.0 0.00 0.00 0.00 97 1010.6